Location: Coopersdale
(40.3556°N, 78.9372°W)
Time: 15:46:43
(UTC+00:00)

Envisat - Pass Details

Date: 25 November 2020
Orbit: 764 x 766 km, 98.1° (Epoch: 15 January)

Event Time Altitude Azimuth Distance (km) Brightness Sun altitude
Rises 10:43:14 0° 19° (NNE) 3,241 6.3 -17.0°
Reaches altitude 10° 10:45:38 10° 25° (NNE) 2,310 5.6 -16.5°
Maximum altitude 10:50:32 46° 99° (E) 1,017 4.1 -15.6°
Drops below altitude 10° 10:55:23 10° 172° (S) 2,293 5.8 -14.7°
Sets 10:57:46 0° 179° (S) 3,215 6.5 -14.3°
